Overview Statistics Trail Chart Weather Telemetry Raw packets
 

This is the latest recevied weather packets stored in our database for station/object 4S6DRJ-13. If no packets are shown the sender has not sent any weather packets the latest 10 day(s).

<< 3 4 5 6 7 8 9 >>
Time Temp. Humidity Pressure Rain* Wind** Luminosity Snow
1788437422 28.89° C 78% 1007.7 hPa 0 mm 0.89 m/s, 234° 56 W/m² -
1788437361 29.44° C 78% 1007.7 hPa 0 mm 1.34 m/s, 302° 58 W/m² -
1788437300 29.44° C 78% 1007.9 hPa 0 mm 2.68 m/s, 237° 58 W/m² -
1788437239 28.89° C 78% 1008 hPa 0 mm 0.89 m/s, 266° 57 W/m² -
1788437178 28.89° C 78% 1007.9 hPa 0 mm 0.45 m/s, 270° 57 W/m² -
1788437117 28.89° C 78% 1007.9 hPa 0 mm 0.45 m/s, 156° 58 W/m² -
1788437056 28.89° C 78% 1007.7 hPa 0 mm 0.89 m/s, 133° 57 W/m² -
1788436996 28.89° C 78% 1007.6 hPa 0 mm 2.68 m/s, 211° 56 W/m² -
1788436934 28.89° C 78% 1007.8 hPa 0 mm 1.79 m/s, 247° 59 W/m² -
1788436873 28.89° C 78% 1007.8 hPa 0 mm 1.79 m/s, 135° 58 W/m² -
1788436812 28.89° C 78% 1007.8 hPa 0 mm 1.79 m/s, 226° 56 W/m² -
1788436751 29.44° C 78% 1007.6 hPa 0 mm 1.34 m/s, 275° 56 W/m² -
1788436690 29.44° C 78% 1007.8 hPa 0 mm 2.24 m/s, 229° 56 W/m² -
1788436629 29.44° C 78% 1007.8 hPa 0 mm 1.79 m/s, 269° 58 W/m² -
1788436568 29.44° C 78% 1007.7 hPa 0 mm 1.34 m/s, 257° 58 W/m² -
1788436507 29.44° C 78% 1007.7 hPa 0 mm 0.89 m/s, 188° 60 W/m² -
1788436446 29.44° C 78% 1007.9 hPa 0 mm 1.79 m/s, 232° 61 W/m² -
1788436385 29.44° C 78% 1007.7 hPa 0 mm 1.34 m/s, 224° 60 W/m² -
1788436324 29.44° C 78% 1007.8 hPa 0 mm 0.45 m/s, 344° 58 W/m² -
1788436263 29.44° C 77% 1007.7 hPa 0 mm 0.45 m/s, 207° 59 W/m² -
1788436202 29.44° C 77% 1007.7 hPa 0 mm 0.89 m/s, 256° 62 W/m² -
1788436141 29.44° C 77% 1007.7 hPa 0 mm 1.79 m/s, 272° 66 W/m² -
1788436080 29.44° C 77% 1007.8 hPa 0 mm 0.89 m/s, 226° 70 W/m² -
1788436020 29.44° C 77% 1007.7 hPa 0 mm 0.89 m/s, 226° 77 W/m² -
1788435959 29.44° C 77% 1007.6 hPa 0 mm 1.79 m/s, 227° 78 W/m² -

* Rain latest hour (hover to see other rain measurements)
** Current wind speed in m/s (hover to see current wind gust speed)